(244789) = 1996 WV = 2003 SV209

Discovered at Haleakala on 2003-09-25 by NEAT.

Orbit

Orbit type: Main Belt

Note: WebGL enabled browser required.

epoch2024-03-31.0
epoch JD2460400.5
perihelion date2021-06-22.41623
perihelion JD2459387.91623
argument of perihelion (°)82.53564
ascending node (°)249.96725
inclination (°)2.92726
eccentricity0.1886857
perihelion distance (AU)1.9046938
Tisserand w.r.t. Jupiter3.5
ΔV w.r.t. Earth (km/sec)8.6
semimajor axis (AU)2.3476645
mean anomaly (°)277.44747
mean daily motion (°/day)0.27399950
aphelion distance (AU)2.791
period (years)3.6
P-vector [x]0.88581868
P-vector [y]-0.44333990
P-vector [z]-0.13702188
Q-vector [x]0.46154452
Q-vector [y]0.81125227
Q-vector [z]0.35895181
absolute magnitude17.32
phase slope0.15
uncertainty0
referenceMPEC 2024-F50
observations used402
oppositions15
arc length (days)9983
first opposition used1996
last opposition used2024
residual rms (arc-secs)0.69
perturbers coarse indicatorM-v
perturbers precise indicator003Ek
first observation date used1996-11-18.0
last observation date used2024-03-19.0
computer nameMPCLINUX
JD of orbit computation2456966.725464
perihelion JD uncertainty (days)6.0107E-05
argument of perihelion uncertainty (°)1.0371E-04
ascending node uncertainty (°)1.0216E-04
inclination uncertainty (°)4.9450E-06
eccentricity uncertainty 5.5059E-08
perihelion distance uncertainty (AU)1.3361E-07
Minimum Orbit Intersection Distances (in AU)
for orbit epoch: 2460400.5, reference: E2024-FB1
Mercury1.50353
Venus1.18362
Earth0.89681
Mars0.53945
Jupiter2.56342
Saturn6.40594
Uranus15.6628
Neptune27.4837

Observations

409 total observations over interval: 1996 11 18.25459 – 2024 03 19.639247
These data are available for download (format description).

Date (UT) J2000 RA J2000 Dec Magn Location Ref
1996 11 18.25459 02 55 27.26 +18 33 37.4   684 – Prescott MPC 28428
1996 11 18.26063 02 55 26.91 +18 33 35.1 18.9 R 684 – Prescott MPC 28428
1996 11 18.26823 02 55 26.48 +18 33 32.5   684 – Prescott MPC 28428
1996 11 19.24075 02 54 31.18 +18 27 40.0   684 – Prescott MPC 28428
1996 11 19.24795 02 54 30.79 +18 27 37.2   684 – Prescott MPC 28428
1996 11 19.25678 02 54 30.24 +18 27 33.6 19.5 R 684 – Prescott MPC 28428
2003 09 16.43688 00 48 07.07 +10 56 39.0 18.9   644 – Palomar Mountain/NEAT MPS 87087
2003 09 16.43831 00 48 07.03 +10 56 39.0 19.0   644 – Palomar Mountain/NEAT MPS 87087
2003 09 16.44830 00 48 06.58 +10 56 36.2 18.9   644 – Palomar Mountain/NEAT MPS 87087
2003 09 16.44971 00 48 06.53 +10 56 35.9 19.1   644 – Palomar Mountain/NEAT MPS 87087
2003 09 16.46111 00 48 06.02 +10 56 33.0 19.1   644 – Palomar Mountain/NEAT MPS 87087
2003 09 16.46256 00 48 05.97 +10 56 32.6 19.2   644 – Palomar Mountain/NEAT MPS 87087
2003 09 20.31034 00 45 18.44 +10 38 34.4 19.9   704 – Lincoln Laboratory ETS, New Mexico MPS 91002
2003 09 20.32284 00 45 17.67 +10 38 30.4 20.0   704 – Lincoln Laboratory ETS, New Mexico MPS 91002
2003 09 20.34811 00 45 16.36 +10 38 23.9 19.7   704 – Lincoln Laboratory ETS, New Mexico MPS 91002
2003 09 25.43498 00 41 11.64 +10 10 01.6 20.2   608 – Haleakala-AMOS MPS 86345
2003 09 25.44547 00 41 11.09 +10 09 58.0 20.3   608 – Haleakala-AMOS MPS 86345
2003 09 25.45604 00 41 10.52 +10 09 53.7 20.5   608 – Haleakala-AMOS MPS 86345
2003 09 27.23612 00 39 40.74 +09 58 50.7 18.8   704 – Lincoln Laboratory ETS, New Mexico MPS 86345
2003 09 27.24922 00 39 40.08 +09 58 46.2 19.6   704 – Lincoln Laboratory ETS, New Mexico MPS 86345
2003 09 27.27520 00 39 38.65 +09 58 36.1 19.2   704 – Lincoln Laboratory ETS, New Mexico MPS 86345
2003 09 27.28834 00 39 37.98 +09 58 31.6 19.6   704 – Lincoln Laboratory ETS, New Mexico MPS 86345
2003 09 29.15604 00 38 02.50 +09 46 26.2 18.7 R 699 – Lowell Observatory-LONEOS MPS 87087
2003 09 29.16438 00 38 02.06 +09 46 23.5   699 – Lowell Observatory-LONEOS MPS 87087
2003 09 29.17270 00 38 01.62 +09 46 21.9   699 – Lowell Observatory-LONEOS MPS 87087
2003 09 29.18099 00 38 01.22 +09 46 18.0   699 – Lowell Observatory-LONEOS MPS 87087
2003 10 05.49409 00 32 35.50 +09 02 52.0 20.4   608 – Haleakala-AMOS MPS 87087
2003 10 05.50453 00 32 34.89 +09 02 47.9 20.0   608 – Haleakala-AMOS MPS 87087
2003 10 05.51493 00 32 34.34 +09 02 42.9 21.2   608 – Haleakala-AMOS MPS 87087
2003 10 15.22673 00 24 53.59 +07 53 05.8 19.0 R 699 – Lowell Observatory-LONEOS MPS 88248
2003 10 15.24670 00 24 52.61 +07 52 58.4   699 – Lowell Observatory-LONEOS MPS 88248
2003 10 15.26656 00 24 51.78 +07 52 49.1   699 – Lowell Observatory-LONEOS MPS 88248
2003 10 15.28645 00 24 50.85 +07 52 40.7   699 – Lowell Observatory-LONEOS MPS 88248
2003 10 16.12643 00 24 15.75 +07 46 48.2 19.7 V 691 – Steward Observatory, Kitt Peak-Spacewatch MPS 87355
2003 10 16.15400 00 24 14.56 +07 46 36.9 19.6 V 691 – Steward Observatory, Kitt Peak-Spacewatch MPS 87355
2003 10 16.18143 00 24 13.34 +07 46 25.4 19.6 V 691 – Steward Observatory, Kitt Peak-Spacewatch MPS 87355
2003 10 20.16809 00 21 37.65 +07 19 16.6 19.8 V 691 – Steward Observatory, Kitt Peak-Spacewatch MPS 88248
2003 10 20.19552 00 21 36.58 +07 19 05.8 19.6 V 691 – Steward Observatory, Kitt Peak-Spacewatch MPS 88248
2003 10 20.22376 00 21 35.47 +07 18 54.7 19.7 V 691 – Steward Observatory, Kitt Peak-Spacewatch MPS 88248
2003 10 21.24198 00 20 59.41 +07 12 15.8 20.3   704 – Lincoln Laboratory ETS, New Mexico MPS 88248
2003 10 21.25361 00 20 58.94 +07 12 09.9 20.0   704 – Lincoln Laboratory ETS, New Mexico MPS 88248
2003 10 21.27683 00 20 58.11 +07 12 01.2 20.0   704 – Lincoln Laboratory ETS, New Mexico MPS 88248
2003 10 25.20298 00 18 55.30 +06 47 34.1 19.3   704 – Lincoln Laboratory ETS, New Mexico MPS 88248
2003 10 25.21500 00 18 54.93 +06 47 29.4 19.2   704 – Lincoln Laboratory ETS, New Mexico MPS 88248
2003 10 25.22737 00 18 54.51 +06 47 25.4 19.3   704 – Lincoln Laboratory ETS, New Mexico MPS 88248
2003 10 25.23956 00 18 54.18 +06 47 20.6 19.6   704 – Lincoln Laboratory ETS, New Mexico MPS 88248
2003 10 25.25163 00 18 53.79 +06 47 16.9 19.9   704 – Lincoln Laboratory ETS, New Mexico MPS 88248
2005 03 13.23705 08 55 09.37 +13 10 57.1 21.2 R G96 – Mt. Lemmon Survey MPS 178416
2005 03 13.24423 08 55 09.08 +13 10 58.0 20.7 R G96 – Mt. Lemmon Survey MPS 178416
2005 03 13.25148 08 55 08.81 +13 10 59.4 21.5 R G96 – Mt. Lemmon Survey MPS 178416
2005 03 13.25868 08 55 08.62 +13 11 00.0 21.3 R G96 – Mt. Lemmon Survey MPS 178416
2006 05 24.27483 15 48 41.94 -20 53 28.6 20.1 R 644 – Palomar Mountain/NEAT MPS 172002
2006 05 24.29910 15 48 40.36 -20 53 21.8 19.6 R 644 – Palomar Mountain/NEAT MPS 172002
2006 05 24.32594 15 48 38.62 -20 53 14.2 19.8 R 644 – Palomar Mountain/NEAT MPS 172002
2007 12 04.16549 05 24 01.38 +22 33 40.2 20.4 V 691 – Steward Observatory, Kitt Peak-Spacewatch MPS 229762
2007 12 04.18313 05 24 00.13 +22 33 38.2 20.1 V 691 – Steward Observatory, Kitt Peak-Spacewatch MPS 229762
2007 12 04.20077 05 23 58.89 +22 33 35.8 20.2 V 691 – Steward Observatory, Kitt Peak-Spacewatch MPS 229762
2007 12 05.25981 05 22 45.77 +22 31 04.2 20.1   704 – Lincoln Laboratory ETS, New Mexico MPS 229762
2007 12 05.27265 05 22 44.86 +22 31 02.5 20.4   704 – Lincoln Laboratory ETS, New Mexico MPS 229762
2007 12 05.28540 05 22 43.90 +22 31 00.2 21.1   704 – Lincoln Laboratory ETS, New Mexico MPS 229762
2007 12 05.29814 05 22 42.98 +22 30 58.8 20.6   704 – Lincoln Laboratory ETS, New Mexico MPS 229762
2007 12 05.31087 05 22 42.04 +22 30 57.5 20.4   704 – Lincoln Laboratory ETS, New Mexico MPS 229762
2007 12 28.16671 04 57 41.88 +21 33 25.5   691 – Steward Observatory, Kitt Peak-Spacewatch MPS 231762
2007 12 28.18775 04 57 40.71 +21 33 22.9   691 – Steward Observatory, Kitt Peak-Spacewatch MPS 231762
2007 12 28.20878 04 57 39.50 +21 33 19.7   691 – Steward Observatory, Kitt Peak-Spacewatch MPS 231762
2007 12 31.13377 04 55 06.38 +21 26 36.6 20.5 V 691 – Steward Observatory, Kitt Peak-Spacewatch MPS 232587
2007 12 31.14963 04 55 05.57 +21 26 34.5 20.7 V 691 – Steward Observatory, Kitt Peak-Spacewatch MPS 232587
2007 12 31.16548 04 55 04.73 +21 26 32.7 20.6 V 691 – Steward Observatory, Kitt Peak-Spacewatch MPS 232587
2010 04 30.028098 20 50 44.27 -15 55 06.7   C51 – WISE MPS 324850
2010 04 30.160403 20 50 56.94 -15 54 00.6   C51 – WISE MPS 324850
2010 04 30.557316 20 51 34.73 -15 50 45.7   C51 – WISE MPS 324850
2010 04 30.623404 20 51 40.99 -15 50 14.7   C51 – WISE MPS 324850
2010 04 30.689620 20 51 47.31 -15 49 39.8   C51 – WISE MPS 324850
2010 04 30.755708 20 51 53.55 -15 49 07.7   C51 – WISE MPS 324850
2010 04 30.821925 20 51 59.88 -15 48 34.9   C51 – WISE MPS 324850
2010 04 30.888013 20 52 06.15 -15 48 02.3   C51 – WISE MPS 324850
2010 04 30.954229 20 52 12.40 -15 47 30.4   C51 – WISE MPS 324850
2010 05 01.020317 20 52 18.58 -15 46 57.7   C51 – WISE MPS 324850
2010 05 01.086532 20 52 24.89 -15 46 25.3   C51 – WISE MPS 324850
2010 05 01.152622 20 52 31.11 -15 45 52.8   C51 – WISE MPS 324850
2010 05 01.549535 20 53 08.64 -15 42 37.1   C51 – WISE MPS 324850
2010 05 01.549662 20 53 08.63 -15 42 37.0   C51 – WISE MPS 324850
2010 05 01.681965 20 53 21.13 -15 41 31.0   C51 – WISE MPS 324850
2010 07 17.00240 21 52 54.15 -07 37 25.8 19.3 V J75 – OAM Observatory, La Sagra MPS 339812
2010 07 17.01672 21 52 53.85 -07 37 24.8 19.0 V J75 – OAM Observatory, La Sagra MPS 339812
2010 07 17.03104 21 52 53.53 -07 37 23.3 19.1 V J75 – OAM Observatory, La Sagra MPS 339812
2010 08 01.98634 21 44 34.62 -07 38 23.6 18.7 V J75 – OAM Observatory, La Sagra MPS 343677
2010 08 01.99818 21 44 34.14 -07 38 25.1 18.8 V J75 – OAM Observatory, La Sagra MPS 343677
2010 08 02.01007 21 44 33.54 -07 38 26.5 18.0 V J75 – OAM Observatory, La Sagra MPS 343677
2010 08 03.87675 21 43 11.14 -07 41 39.7 19.2 V A50 – Andrushivka Astronomical Observatory MPS 343677
2010 08 03.89332 21 43 10.34 -07 41 41.3 18.8 V A50 – Andrushivka Astronomical Observatory MPS 343677
2010 08 03.90988 21 43 09.54 -07 41 42.9 18.9 V A50 – Andrushivka Astronomical Observatory MPS 343677
2010 08 04.34039 21 42 49.86 -07 42 31.4 19.0   704 – Lincoln Laboratory ETS, New Mexico MPS 343677
